Showing default

SPEQTRE, 66769

Orbit data source: Space-Track

SPEQTRE, 66769 is a Singaporean payload satellite in SSO that was launched on Fri, 28 Nov 2025 UTC via an FALCON 9 launch vehicle from the Air Force Western Test Range (AFWTR). Payload-class satellites include a variety of spacecraft equipped with specific instruments for various scientific and technological missions. These include communications satellites like Starlink; space stations such as the ISS; scientific satellites like the Hubble; Earth observation satellites from companies like Planet Labs, Umbra, and HawkEye 360; GPS; miniature CubeSats for education and research; and military/defense satellites.

Loading next visibility...
Identifier
66769, 2025-276DH
Orbit
SSO
Country
Flag of SGSG / SING
Related business
Manufacturer
ISIS BV
Mission
Operational Civil Technology
Bus & Motor
CUBESAT 12U, Unknown motor
Mass
~20 kg wet, ~20 kg dry
Launch date (UTC)
2025-11-28 (9 months ago)
Launch vehicle
FALCON 9
Launch site
Air Force Western Test Range (AFWTR)
Object type
Payload
Rocket body
Debris
Shape & HBR
Box, 0.2 m
Radar Cross Section
0.080 m², Medium (>0.1 m² and < 1m²)

Expand to show TLE details & history
Last TLE update: 16 hours ago

TLE from 16 hours ago
0 SPEQTRE
1 66769U 25276DH  26238.16898677  .00004055  00000-0  18581-3 0  9999
2 66769  97.4164 310.9057 0001763  52.1925 307.9470 15.21029392 41079
Epoch: 2026-08-26T04:03Z
TLE epoch observation values (Epoch: 2026-08-26T04:03:20.456Z)
Latitude
-0.00006°
Longitude
-84.35537°
Altitude
505.08 km
Speed
7.612 km/s
True Right ascension
20h 43m 37s
True Declination
0° 00' 00"
Sunlit
Object was in full shadow at epoch
Visualization orbit readout
Latitude
Unknown
Longitude
Unknown
Altitude
Unknown
Speed
Unknown
Apparent Right ascension
Unknown
Apparent Declination
Unknown
Sunlit
N/A
Visualization observer readout
Local Sidereal Time
11:45:45
Azimuth
Unknown
Elevation
Unknown
Doppler factor
Unknown
Orbital elements
Apogee altitude
500.912 km
Perigee altitude
498.487 km
Semi-major axis
6,877.836 km
Eccentricity
0.00018
Inclination
97.4164°
RAAN
310.9057°
Arg. of periapsis
52.1925°
True anomaly
307.93107°
Mean anomaly
307.947°
Eccentric anomaly
307.93903°
Mean motion
3.80509 °/min
Orbital period
94.61 mins
BSTAR
0.00018581
Loading maneuver chart data...
Computing Atmospheric mass density...
Loading historical data...
Loading historical data...
Loading historical data...
Loading historical data...
Loading historical data...
Loading historical data...
Loading historical data...

Documentation

Showing up to 5 results
|